OBJECT AT, 68457

Orbit data source: Space-Track

You're viewing an uncataloged RSO

Recently launched and/or uncataloged RSOs may have evolving metadata. Metadata may include the following, but is not limited to: Owner, Manufacturer, Bus, Motor, and Mission.

OBJECT AT, 68457 is a satellite in SSO that was launched on Mon, 30 Mar 2026 UTC via an FALCON 9 launch vehicle from the Air Force Western Test Range (AFWTR). Unknown objects in Earth's orbit typically refer to objects detected orbiting the Earth but have not yet been identified or cataloged. These objects could be anything from previously untracked satellites, spent rocket stages, debris from satellite collisions, or even natural meteoroids temporarily captured by Earth's gravity.

Loading next visibility...
Identifier
68457, 2026-067AT
Orbit
SSO
Country
Flag of TBDTBD
Related business
None
Manufacturer
Unknown
Mission
Operational Commercial Technology
Bus & Motor
Unknown
Mass
Unknown
Launch date (UTC)
2026-03-30 (5 months ago)
Launch vehicle
FALCON 9
Launch site
Air Force Western Test Range (AFWTR)
Object type
Unknown
Shape & HBR
Box + 2 Ant, 1.1 m
Radar Cross Section
0.006 m², Medium (>0.1 m² and < 1m²)

Expand to show TLE details & history
Last TLE update: 12 hours ago

TLE from 12 hours ago
0 OBJECT AT
1 68457U 26067AT  26249.39829823  .00005765  00000-0  26466-3 0  9998
2 68457  97.4618 207.0441 0003674  79.0184 281.1464 15.20792970 24288
Epoch: 2026-09-06T09:33Z
TLE epoch observation values (Epoch: 2026-09-06T09:33:32.967Z)
Latitude
-0.00005°
Longitude
78.16276°
Altitude
506.049 km
Speed
7.611 km/s
True Right ascension
13h 48m 10s
True Declination
0° 00' 00"
Sunlit
Object was in daylight at epoch
Visualization orbit readout
Latitude
Unknown
Longitude
Unknown
Altitude
Unknown
Speed
Unknown
Apparent Right ascension
Unknown
Apparent Declination
Unknown
Sunlit
N/A
Visualization observer readout
Local Sidereal Time
13:24:16
Azimuth
Unknown
Elevation
Unknown
Doppler factor
Unknown
Orbital elements
Apogee altitude
502.942 km
Perigee altitude
497.887 km
Semi-major axis
6,878.552 km
Eccentricity
0.00037
Inclination
97.4618°
RAAN
207.0441°
Arg. of periapsis
79.0184°
True anomaly
281.10509°
Mean anomaly
281.1464°
Eccentric anomaly
281.12575°
Mean motion
3.8045 °/min
Orbital period
94.62 mins
BSTAR
0.00026466
Loading maneuver chart data...
Computing Atmospheric mass density...
Loading historical data...
Loading historical data...
Loading historical data...
Loading historical data...
Loading historical data...
Loading historical data...
Loading historical data...

Documentation

Showing up to 5 results
|